period_start,C,m1,H,J0,J1,J2,J3,J4,J5,JA,JB,JC,JD,JJ,JK,JN,#
2018-05-08 00:02:37,0.06,1.67,0.00,25.56,29.27,32.09,13.86,47.17,1021.99,2016.77,2852.97,2621.98,2983.05,599.92,593.99,20.54,0000 0000 0000 0000 000000
2018-05-08 00:07:38,0.07,1.67,0.00,25.48,29.29,32.10,13.91,47.13,1021.99,2016.68,2851.57,2621.01,2981.84,599.96,594.16,20.59,0000 0000 0000 0000 000000
2018-05-08 00:12:40,0.09,1.67,0.00,25.49,29.30,32.11,13.98,47.08,1021.99,2016.76,2850.20,2620.08,2980.68,600.11,594.29,20.64,0000 0000 0000 0000 000000
2018-05-08 00:17:41,0.08,1.68,0.00,25.47,29.30,32.24,13.93,47.05,1021.99,2016.78,2848.73,2619.12,2979.48,599.98,594.22,20.69,0000 0000 0000 0000 000000
2018-05-08 00:22:42,0.07,1.68,0.00,25.42,29.30,32.22,13.94,47.14,1021.99,2016.72,2847.31,2618.13,2978.31,600.10,594.46,20.74,0000 0000 0000 0000 000000
2018-05-08 00:27:43,0.07,1.69,0.00,25.44,29.30,32.20,13.96,47.18,1021.99,2016.75,2845.86,2617.19,2977.18,599.81,594.09,20.79,0000 0000 0000 0000 000000
2018-05-08 00:32:45,0.08,1.69,0.00,25.47,29.28,32.23,13.91,47.18,1021.99,2016.78,2844.50,2616.20,2976.01,599.99,594.30,20.84,0000 0000 0000 0000 000000
2018-05-08 00:37:46,0.09,1.70,0.00,25.41,29.27,32.17,13.92,47.27,1021.99,2016.93,2843.17,2615.31,2974.85,600.10,594.45,20.89,0000 0000 0000 0000 000000
2018-05-08 00:42:47,0.08,1.70,0.00,25.38,29.27,32.13,13.92,47.27,1021.98,2016.90,2841.74,2614.36,2973.67,600.08,594.48,20.94,0000 0000 0000 0000 000000
2018-05-08 00:47:48,0.08,1.70,0.00,25.43,29.26,32.10,13.80,47.23,1021.95,2016.93,2840.39,2613.41,2972.51,599.73,593.93,20.99,0000 0000 0000 0000 000000
2018-05-08 00:52:50,0.08,1.71,0.00,25.45,29.25,32.07,13.95,47.24,1021.95,2016.97,2838.86,2612.44,2971.35,599.88,594.21,21.04,0000 0000 0000 0000 000000
2018-05-08 00:57:51,0.08,1.71,0.00,25.50,29.23,32.06,13.95,47.23,1021.79,2016.97,2837.48,2611.49,2970.22,599.93,593.99,21.09,0000 0000 0000 0000 000000
2018-05-08 01:02:52,0.08,1.72,0.00,25.40,29.21,32.02,13.86,47.15,1021.77,2016.98,2835.90,2610.55,2968.96,599.96,594.08,21.14,0000 0000 0000 0000 000000
2018-05-08 01:07:53,0.08,1.72,0.00,25.34,29.17,31.99,13.93,47.25,1021.94,2016.99,2834.47,2609.62,2967.83,600.26,594.75,21.19,0000 0000 0000 0000 000000
2018-05-08 01:12:55,0.05,1.72,0.00,25.34,29.14,31.92,13.84,47.25,1021.89,2016.99,2833.16,2608.88,2966.82,599.66,594.09,21.24,0000 0000 0000 0000 000000
2018-05-08 01:17:56,0.08,1.73,0.00,25.31,29.10,31.89,13.97,47.29,1021.86,2017.00,2831.69,2608.04,2965.74,600.19,594.67,21.29,0000 0000 0000 0000 000000
2018-05-08 01:22:57,0.08,1.73,0.00,25.32,29.06,31.84,13.85,47.31,1021.73,2017.05,2830.37,2607.20,2964.69,599.87,594.16,21.34,0000 0000 0000 0000 000000
2018-05-08 01:27:59,0.11,1.74,0.00,25.34,29.02,31.81,13.84,47.29,1021.69,2017.35,2828.95,2606.26,2963.63,600.19,594.47,21.39,0000 0000 0000 0000 000000
2018-05-08 01:33:00,0.13,1.74,0.00,25.33,28.99,31.74,13.90,47.27,1021.54,2017.80,2827.59,2605.37,2962.54,599.97,594.21,21.44,0000 0000 0000 0000 000000
2018-05-08 01:38:02,0.09,1.75,0.00,25.36,28.94,31.65,13.90,47.22,1021.52,2017.97,2826.06,2604.44,2961.37,600.00,594.16,21.49,0000 0000 0000 0000 000000
2018-05-08 01:43:03,0.08,1.75,0.00,25.39,28.90,31.60,13.90,47.12,1021.52,2017.99,2824.61,2603.52,2960.19,599.84,593.93,21.54,0000 0000 0000 0000 000000
2018-05-08 01:48:04,0.07,1.76,0.00,25.42,28.86,31.56,13.93,47.17,1021.53,2017.99,2823.14,2602.68,2959.14,599.89,593.91,21.59,0000 0000 0000 0000 000000
2018-05-08 01:53:05,0.08,1.76,0.00,25.42,28.83,31.55,13.91,47.15,1021.51,2018.00,2821.67,2601.70,2958.02,600.05,594.10,21.64,0000 0000 0000 0000 000000
2018-05-08 01:58:07,0.07,1.77,0.00,25.48,28.80,31.52,13.79,47.13,1021.51,2018.05,2820.47,2600.81,2956.94,599.79,593.69,21.69,0000 0000 0000 0000 000000
2018-05-08 02:03:08,0.10,1.77,0.00,25.51,28.77,31.53,13.87,47.12,1021.51,2018.25,2818.95,2599.88,2955.83,600.26,594.13,21.74,0000 0000 0000 0000 000000
2018-05-08 02:08:09,0.13,1.78,0.00,25.52,28.75,31.54,13.84,47.25,1021.53,2018.72,2817.55,2598.94,2954.65,599.97,593.86,21.79,0000 0000 0000 0000 000000
2018-05-08 02:13:10,0.09,1.78,0.00,25.57,28.72,31.49,13.84,47.11,1021.66,2018.90,2816.15,2598.00,2953.55,599.94,593.80,21.84,0000 0000 0000 0000 000000
2018-05-08 02:18:12,0.08,1.79,0.00,25.62,28.70,31.40,13.82,46.99,1021.95,2018.97,2814.80,2597.10,2952.51,600.10,594.06,21.89,0000 0000 0000 0000 000000
2018-05-08 02:23:13,0.08,1.79,0.00,25.63,28.69,31.32,13.89,47.11,1021.79,2018.99,2813.49,2596.22,2951.36,599.88,593.72,21.94,0000 0000 0000 0000 000000
2018-05-08 02:28:14,0.07,1.80,0.00,25.69,28.67,31.31,13.76,47.13,1021.60,2018.99,2812.10,2595.30,2950.19,599.83,593.54,21.99,0000 0000 0000 0000 000000
2018-05-08 02:33:15,0.08,1.80,0.00,25.76,28.66,31.31,13.82,47.01,1021.57,2018.99,2810.75,2594.37,2948.99,600.27,593.72,22.04,0000 0000 0000 0000 000000
2018-05-08 02:38:16,0.07,1.80,0.00,25.78,28.65,31.29,13.90,47.17,1021.61,2018.99,2809.54,2593.43,2947.91,599.96,593.35,22.10,0000 0000 0000 0000 000000
2018-05-08 02:43:17,0.08,1.81,0.00,25.79,28.65,31.31,13.81,47.06,1021.65,2018.99,2808.19,2592.42,2946.86,599.99,593.24,22.15,0000 0000 0000 0000 000000
2018-05-08 02:48:19,0.07,1.81,0.00,25.86,28.65,31.33,13.86,47.02,1021.52,2019.00,2806.99,2591.57,2945.83,599.88,593.07,22.20,0000 0000 0000 0000 000000
2018-05-08 02:53:20,0.08,1.81,0.00,25.88,28.65,31.31,13.86,47.00,1021.50,2019.00,2805.80,2590.58,2944.75,600.15,593.28,22.25,0000 0000 0000 0000 000000
2018-05-08 02:58:21,0.07,1.82,0.00,25.90,28.66,31.32,13.77,47.08,1021.50,2019.00,2804.42,2589.62,2943.72,600.02,593.08,22.30,0000 0000 0000 0000 000000
2018-05-08 03:03:23,0.08,1.82,0.00,25.95,28.67,31.36,13.82,47.02,1021.50,2019.00,2803.05,2588.60,2942.53,600.30,593.19,22.35,0000 0000 0000 0000 000000
2018-05-08 03:08:24,0.09,1.83,0.00,26.00,28.68,31.35,13.80,46.90,1021.50,2019.00,2801.45,2587.54,2941.26,600.08,592.98,22.40,0000 0000 0000 0000 000000
2018-05-08 03:13:25,0.08,1.83,0.00,26.02,28.70,31.36,13.75,47.19,1021.50,2019.00,2799.93,2586.52,2939.92,599.72,592.63,22.45,0000 0000 0000 0000 000000
2018-05-08 03:18:26,0.10,1.84,0.00,26.07,28.72,31.39,13.73,47.04,1021.50,2019.00,2798.44,2585.39,2938.54,599.70,592.55,22.50,0000 0000 0000 0000 000000
2018-05-08 03:23:27,0.08,1.84,0.00,26.13,28.74,31.41,13.78,46.99,1021.50,2019.00,2797.17,2584.38,2937.45,599.92,592.65,22.55,0000 0000 0000 0000 000000
2018-05-08 03:28:29,0.07,1.85,0.00,26.16,28.76,31.44,13.79,47.10,1021.43,2018.99,2795.81,2583.37,2936.21,599.48,592.03,22.60,0000 0000 0000 0000 000000
2018-05-08 03:33:30,0.09,1.85,0.00,26.18,28.78,31.45,13.74,47.00,1021.09,2018.99,2794.34,2582.25,2934.88,599.86,592.07,22.65,0000 0000 0000 0000 000000
2018-05-08 03:38:31,0.08,1.86,0.00,26.24,28.80,31.47,13.79,47.14,1021.07,2018.96,2792.91,2581.20,2933.71,600.01,592.06,22.70,0000 0000 0000 0000 000000
2018-05-08 03:43:32,0.04,1.86,0.00,26.30,28.83,31.48,13.79,47.08,1021.02,2018.78,2791.75,2580.24,2932.64,599.89,591.92,22.75,0000 0000 0000 0000 000000
2018-05-08 03:48:33,0.08,1.86,0.00,26.31,28.85,31.52,13.80,47.12,1021.01,2018.45,2790.00,2579.06,2931.12,600.15,592.08,22.80,0000 0000 0000 0000 000000
2018-05-08 03:53:35,0.08,1.87,0.00,26.34,28.88,31.53,13.73,47.15,1021.01,2018.42,2788.54,2577.98,2929.82,599.89,591.82,22.85,0000 0000 0000 0000 000000
2018-05-08 03:58:36,0.06,1.87,0.00,26.41,28.91,31.58,13.74,47.14,1021.01,2018.10,2786.99,2576.90,2928.63,599.69,591.38,22.90,0000 0000 0000 0000 000000
2018-05-08 04:03:37,0.09,1.87,0.00,26.45,28.93,31.60,13.80,47.08,1020.99,2018.02,2785.52,2575.77,2927.32,599.87,591.56,22.95,0000 0000 0000 0000 000000
2018-05-08 04:08:39,0.10,1.88,0.00,26.48,28.96,31.64,13.81,47.15,1020.96,2018.00,2783.89,2574.61,2925.80,599.89,591.46,23.00,0000 0000 0000 0000 000000
2018-05-08 04:13:40,0.09,1.88,0.00,26.52,28.99,31.65,13.75,47.16,1020.94,2018.00,2782.28,2573.50,2924.43,600.01,591.65,23.05,0000 0000 0000 0000 000000
2018-05-08 04:18:41,0.09,1.89,0.00,26.57,29.01,31.68,13.76,47.13,1020.98,2018.00,2780.71,2572.37,2923.02,600.03,591.51,23.10,0000 0000 0000 0000 000000
2018-05-08 04:23:42,0.10,1.89,0.00,26.60,29.04,31.71,13.74,47.09,1020.97,2017.98,2778.99,2571.11,2921.61,600.03,591.50,23.15,0000 0000 0000 0000 000000
2018-05-08 04:28:43,0.09,1.90,0.00,26.64,29.06,31.73,13.70,47.02,1020.97,2017.91,2777.34,2569.82,2920.15,600.08,591.49,23.20,0000 0000 0000 0000 000000
2018-05-08 04:33:45,0.06,1.90,0.00,26.69,29.09,31.77,13.73,46.96,1020.95,2017.72,2775.65,2568.69,2918.68,600.15,591.39,23.25,0000 0000 0000 0000 000000
2018-05-08 04:38:46,0.06,1.91,0.00,26.74,29.11,31.81,13.75,46.96,1020.96,2017.34,2774.24,2567.60,2917.36,599.95,591.16,23.30,0000 0000 0000 0000 000000
2018-05-08 04:43:48,0.08,1.91,0.00,26.76,29.14,31.83,13.67,46.92,1020.92,2017.06,2772.61,2566.45,2916.02,600.06,591.01,23.35,0000 0000 0000 0000 000000
2018-05-08 04:48:49,0.10,1.91,0.00,26.77,29.16,31.87,13.80,47.00,1020.84,2017.05,2770.90,2565.25,2914.53,600.13,591.07,23.40,0000 0000 0000 0000 000000
2018-05-08 04:53:51,0.08,1.92,0.00,26.82,29.19,31.90,13.73,46.98,1020.69,2017.00,2769.39,2564.08,2913.19,599.93,590.76,23.45,0000 0000 0000 0000 000000
2018-05-08 04:58:52,0.10,1.92,0.00,26.88,29.22,31.93,13.73,46.98,1020.57,2017.00,2767.79,2562.91,2911.79,599.81,590.42,23.50,0000 0000 0000 0000 000000
2018-05-08 05:03:54,0.10,1.93,0.00,26.90,29.25,31.97,13.76,47.05,1020.53,2017.00,2766.15,2561.68,2910.38,600.23,590.60,23.55,0000 0000 0000 0000 000000
2018-05-08 05:08:55,0.09,1.93,0.00,26.93,29.28,31.99,13.61,46.82,1020.54,2016.97,2764.58,2560.47,2908.87,599.81,590.31,23.60,0000 0000 0000 0000 000000
2018-05-08 05:13:56,0.07,1.94,0.00,26.95,29.31,32.03,13.70,46.97,1020.54,2016.79,2763.11,2559.39,2907.57,599.67,590.13,23.65,0000 0000 0000 0000 000000
2018-05-08 05:18:57,0.03,1.94,0.00,26.99,29.34,32.06,13.79,47.00,1020.52,2016.41,2761.76,2558.55,2906.34,599.95,590.44,23.70,0000 0000 0000 0000 000000
2018-05-08 05:23:59,0.06,1.94,0.00,27.03,29.37,32.09,13.69,46.90,1020.52,2016.12,2760.36,2557.46,2905.12,599.92,590.31,23.75,0000 0000 0000 0000 000000
2018-05-08 05:29:00,0.08,1.95,0.00,27.06,29.41,32.13,13.73,46.92,1020.52,2016.00,2758.99,2556.36,2903.85,599.94,590.12,23.80,0000 0000 0000 0000 000000
2018-05-08 05:34:02,0.09,1.95,0.00,27.07,29.44,32.14,13.73,47.03,1020.52,2016.00,2757.65,2555.37,2902.61,600.34,590.60,23.85,0000 0000 0000 0000 000000
2018-05-08 05:39:03,0.08,1.96,0.00,27.08,29.48,32.19,13.77,46.98,1020.52,2016.00,2756.32,2554.25,2901.38,600.28,590.39,23.90,0000 0000 0000 0000 000000
2018-05-08 05:44:05,0.09,1.96,0.00,27.15,29.52,32.22,13.72,47.03,1020.51,2015.98,2754.75,2553.12,2900.00,599.96,590.01,23.95,0000 0000 0000 0000 000000
2018-05-08 05:49:06,0.09,1.97,0.00,27.17,29.56,32.25,13.80,47.03,1020.36,2015.97,2753.25,2552.00,2898.66,600.16,589.99,24.00,0000 0000 0000 0000 000000
2018-05-08 05:54:07,0.06,1.97,0.00,27.19,29.61,32.28,13.71,47.02,1020.24,2015.60,2751.69,2550.75,2897.16,600.01,589.81,24.05,0000 0000 0000 0000 000000
2018-05-08 05:59:08,0.08,1.97,0.00,27.23,29.64,32.31,13.64,46.96,1020.09,2015.16,2750.00,2549.53,2895.65,599.73,589.38,24.10,0000 0000 0000 0000 000000
2018-05-08 06:04:10,0.09,1.98,0.00,27.25,29.68,32.35,13.69,46.91,1020.05,2015.01,2748.43,2548.32,2894.12,600.09,589.68,24.15,0000 0000 0000 0000 000000
2018-05-08 06:09:11,0.10,1.98,0.00,27.30,29.72,32.38,13.73,47.02,1020.06,2015.00,2746.89,2547.05,2892.78,600.16,589.60,24.20,0000 0000 0000 0000 000000
2018-05-08 06:14:12,0.10,1.99,0.00,27.36,29.75,32.41,13.75,47.01,1020.08,2014.97,2745.21,2545.83,2891.29,600.05,589.38,24.25,0000 0000 0000 0000 000000
2018-05-08 06:19:14,0.08,1.99,0.00,27.39,29.78,32.45,13.71,47.04,1020.04,2014.85,2743.64,2544.72,2889.84,600.17,589.51,24.30,0000 0000 0000 0000 000000
2018-05-08 06:24:15,0.04,1.99,0.00,27.40,29.81,32.48,13.71,46.99,1020.04,2014.30,2742.08,2543.58,2888.51,600.09,589.37,24.35,0000 0000 0000 0000 000000
2018-05-08 06:29:16,0.08,2.00,0.00,27.43,29.84,32.51,13.65,46.99,1020.04,2014.09,2740.49,2542.35,2887.11,599.86,589.01,24.40,0000 0000 0000 0000 000000
2018-05-08 06:34:17,0.09,2.00,0.00,27.46,29.87,32.56,13.67,46.88,1020.01,2014.02,2738.90,2541.24,2885.67,599.99,589.11,24.45,0000 0000 0000 0000 000000
2018-05-08 06:39:19,0.09,2.01,0.00,27.50,29.90,32.58,13.64,46.95,1019.97,2014.00,2737.29,2540.04,2884.27,599.90,588.96,24.50,0000 0000 0000 0000 000000
2018-05-08 06:44:20,0.11,2.01,0.00,27.55,29.92,32.62,13.73,47.02,1019.96,2014.00,2735.73,2538.84,2882.86,600.09,589.01,24.55,0000 0000 0000 0000 000000
2018-05-08 06:49:21,0.08,2.02,0.00,27.57,29.95,32.64,13.72,46.93,1019.80,2013.98,2734.21,2537.73,2881.58,600.35,589.23,24.60,0000 0000 0000 0000 000000
2018-05-08 06:54:22,0.08,2.02,0.00,27.61,29.98,32.68,13.68,46.83,1019.74,2013.92,2732.81,2536.66,2880.29,599.81,588.60,24.65,0000 0000 0000 0000 000000
2018-05-08 06:59:24,0.04,2.03,0.00,27.62,30.01,32.71,13.70,47.01,1019.63,2013.60,2731.34,2535.54,2879.06,600.04,588.65,24.70,0000 0000 0000 0000 000000
2018-05-08 07:04:25,0.06,2.03,0.00,27.63,30.03,32.75,13.69,47.02,1019.59,2013.11,2729.86,2534.44,2877.86,600.16,588.75,24.75,0000 0000 0000 0000 000000
2018-05-08 07:09:26,0.08,2.03,0.00,27.66,30.06,32.78,13.63,46.96,1019.56,2013.01,2728.50,2533.37,2876.61,600.22,588.74,24.80,0000 0000 0000 0000 000000
2018-05-08 07:14:28,0.08,2.04,0.00,27.69,30.09,32.81,13.67,46.92,1019.57,2013.00,2727.09,2532.35,2875.41,600.04,588.50,24.85,0000 0000 0000 0000 000000
2018-05-08 07:19:29,0.09,2.04,0.00,27.71,30.11,32.85,13.70,46.97,1019.56,2013.00,2725.63,2531.34,2874.11,600.12,588.50,24.90,0000 0000 0000 0000 000000
2018-05-08 07:24:30,0.09,2.05,0.00,27.74,30.14,32.88,13.72,46.92,1019.56,2013.00,2724.22,2530.34,2872.85,599.99,588.30,24.95,0000 0000 0000 0000 000000
2018-05-08 07:29:31,0.07,2.05,0.00,27.75,30.16,32.91,13.77,46.93,1019.55,2012.96,2722.91,2529.43,2871.77,600.30,588.54,25.00,0000 0000 0000 0000 000000
2018-05-08 07:34:32,0.08,2.05,0.00,27.78,30.19,32.94,13.66,46.83,1019.55,2012.95,2721.73,2528.55,2870.70,600.11,588.42,25.05,0000 0000 0000 0000 000000
2018-05-08 07:39:34,0.04,2.06,0.00,27.81,30.21,32.97,13.72,46.82,1019.55,2012.83,2720.54,2527.80,2869.61,600.14,588.35,25.10,0000 0000 0000 0000 000000
2018-05-08 07:44:35,0.04,2.06,0.00,27.83,30.24,33.00,13.72,46.86,1019.55,2012.58,2719.49,2526.89,2868.67,600.08,588.28,25.15,0000 0000 0000 0000 000000
2018-05-08 07:49:36,0.03,2.06,0.00,27.86,30.26,33.03,13.68,46.92,1019.55,2012.15,2718.33,2526.03,2867.66,599.84,587.97,25.20,0000 0000 0000 0000 000000
2018-05-08 07:54:37,0.06,2.06,0.00,27.89,30.29,33.06,13.66,46.77,1019.55,2012.04,2717.47,2525.27,2866.85,600.20,588.45,25.25,0000 0000 0000 0000 000000
2018-05-08 07:59:39,0.05,2.07,0.00,27.90,30.32,33.08,13.71,46.85,1019.54,2012.01,2716.49,2524.67,2865.93,600.13,588.15,25.30,0000 0000 0000 0000 000000
2018-05-08 08:04:40,0.05,2.07,0.00,27.93,30.34,33.11,13.65,46.77,1019.54,2012.00,2715.51,2523.97,2865.06,600.02,587.92,25.35,0000 0000 0000 0000 000000
2018-05-08 08:09:41,0.07,2.07,0.00,27.93,30.37,33.13,13.67,46.82,1019.52,2012.00,2714.50,2523.11,2864.16,599.73,587.71,25.40,0000 0000 0000 0000 000000
2018-05-08 08:14:43,0.06,2.07,0.00,27.95,30.39,33.16,13.66,46.79,1019.53,2012.00,2713.67,2522.56,2863.31,600.33,588.24,25.45,0000 0000 0000 0000 000000
2018-05-08 08:19:45,0.04,2.08,0.00,27.97,30.42,33.19,13.66,46.82,1019.49,2011.97,2712.74,2521.93,2862.53,599.92,587.69,25.50,0000 0000 0000 0000 000000
2018-05-08 08:24:46,0.05,2.08,0.00,27.96,30.44,33.22,13.69,46.79,1019.34,2011.92,2711.92,2521.11,2861.77,600.20,587.89,25.56,0000 0000 0000 0000 000000
2018-05-08 08:29:48,0.03,2.08,0.00,27.98,30.46,33.25,13.73,46.91,1019.38,2011.74,2710.95,2520.58,2860.91,600.39,588.16,25.61,0000 0000 0000 0000 000000
2018-05-08 08:34:49,0.01,2.08,0.00,27.99,30.49,33.26,13.67,46.93,1019.38,2011.26,2709.89,2519.88,2859.95,599.81,587.57,25.66,0000 0000 0000 0000 000000
2018-05-08 08:39:50,0.04,2.09,0.00,28.01,30.51,33.28,13.69,46.82,1019.35,2011.06,2709.00,2519.07,2859.10,600.19,587.81,25.71,0000 0000 0000 0000 000000
2018-05-08 08:44:51,0.06,2.09,0.00,28.02,30.53,33.30,13.77,46.83,1019.18,2011.02,2708.15,2518.47,2858.37,599.88,587.61,25.76,0000 0000 0000 0000 000000
2018-05-08 08:49:52,0.03,2.09,0.00,28.02,30.55,33.33,13.66,46.86,1019.12,2011.00,2707.36,2517.95,2857.70,600.08,587.57,25.81,0000 0000 0000 0000 000000
2018-05-08 08:54:54,0.06,2.09,0.00,28.02,30.57,33.35,13.65,46.79,1019.08,2011.00,2706.64,2517.14,2856.99,599.84,587.31,25.86,0000 0000 0000 0000 000000
2018-05-08 08:59:55,0.04,2.10,0.00,28.03,30.60,33.37,13.72,46.94,1019.08,2010.99,2705.85,2516.80,2856.13,600.05,587.55,25.91,0000 0000 0000 0000 000000
2018-05-08 09:04:56,0.05,2.10,0.00,28.02,30.61,33.38,13.72,46.81,1019.08,2010.98,2705.02,2516.04,2855.48,599.65,587.18,25.96,0000 0000 0000 0000 000000
2018-05-08 09:09:58,0.05,2.10,0.00,28.03,30.63,33.42,13.59,46.84,1019.07,2010.90,2704.16,2515.42,2854.66,599.86,587.30,26.01,0000 0000 0000 0000 000000
2018-05-08 09:14:59,0.03,2.10,0.00,28.02,30.65,33.44,13.66,46.78,1019.07,2010.85,2703.35,2514.94,2853.96,599.95,587.46,26.06,0000 0000 0000 0000 000000
2018-05-08 09:20:00,0.04,2.11,0.00,28.01,30.66,33.43,13.72,46.75,1019.06,2010.59,2702.53,2514.13,2853.13,600.20,587.77,26.11,0000 0000 0000 0000 000000
2018-05-08 09:25:01,0.03,2.11,0.00,28.00,30.67,33.45,13.54,46.73,1019.06,2010.43,2701.76,2513.76,2852.53,599.55,587.17,26.16,0000 0000 0000 0000 000000
2018-05-08 09:30:02,0.02,2.11,0.00,27.98,30.70,33.48,13.70,46.73,1019.06,2010.18,2700.92,2513.03,2851.84,600.39,587.89,26.21,0000 0000 0000 0000 000000
2018-05-08 09:35:03,0.05,2.11,0.00,27.96,30.70,33.50,13.71,46.80,1019.06,2010.06,2700.09,2512.58,2851.05,600.35,587.98,26.26,0000 0000 0000 0000 000000
2018-05-08 09:40:04,0.04,2.11,0.00,27.94,30.72,33.50,13.69,46.83,1019.06,2010.02,2699.40,2512.00,2850.41,600.03,587.66,26.31,0000 0000 0000 0000 000000
2018-05-08 09:45:06,0.05,2.12,0.00,27.91,30.72,33.52,13.63,46.84,1019.03,2010.00,2698.60,2511.41,2849.81,599.61,587.28,26.36,0000 0000 0000 0000 000000
2018-05-08 09:50:07,0.03,2.12,0.00,27.89,30.73,33.52,13.75,46.87,1018.99,2010.00,2697.91,2510.99,2849.04,600.08,587.76,26.41,0000 0000 0000 0000 000000
2018-05-08 09:55:08,0.06,2.12,0.00,27.86,30.75,33.52,13.73,46.83,1019.01,2010.00,2697.10,2510.29,2848.39,599.84,587.79,26.46,0000 0000 0000 0000 000000
2018-05-08 10:00:09,0.02,2.12,0.00,27.84,30.75,33.54,13.61,46.82,1018.86,2010.00,2696.36,2509.99,2847.94,599.83,587.68,26.51,0000 0000 0000 0000 000000
2018-05-08 10:05:11,0.06,2.12,0.00,27.82,30.75,33.54,13.63,46.73,1018.83,2010.00,2695.75,2509.40,2847.11,599.86,587.70,26.56,0000 0000 0000 0000 000000
2018-05-08 10:10:12,0.03,2.13,0.00,27.80,30.75,33.53,13.66,46.76,1018.72,2010.00,2694.95,2508.99,2846.40,600.04,587.80,26.61,0000 0000 0000 0000 000000
2018-05-08 10:15:13,0.05,2.13,0.00,27.78,30.75,33.55,13.72,46.77,1018.59,2010.00,2694.11,2508.36,2845.88,600.23,587.93,26.66,0000 0000 0000 0000 000000
2018-05-08 10:20:14,0.04,2.13,0.00,27.75,30.77,33.54,13.63,46.80,1018.59,2010.00,2693.28,2507.98,2845.07,600.03,587.79,26.71,0000 0000 0000 0000 000000
2018-05-08 10:25:16,0.04,2.13,0.00,27.78,30.77,33.56,13.63,46.75,1018.59,2010.00,2692.90,2507.40,2844.75,599.91,587.68,26.76,0000 0000 0000 0000 000000
2018-05-08 10:30:17,0.03,2.14,0.00,27.75,30.77,33.56,13.78,46.85,1018.58,2010.00,2692.11,2507.00,2844.04,600.07,587.76,26.81,0000 0000 0000 0000 000000
2018-05-08 10:35:18,0.05,2.14,0.00,27.71,30.77,33.56,13.75,46.85,1018.57,2010.00,2691.52,2506.66,2843.56,600.26,588.00,26.86,0000 0000 0000 0000 000000
2018-05-08 10:40:19,0.02,2.14,0.00,27.66,30.77,33.56,13.60,46.90,1018.57,2010.00,2690.91,2506.04,2843.00,599.83,587.75,26.91,0000 0000 0000 0000 000000
2018-05-08 10:45:21,0.03,2.14,0.00,27.63,30.77,33.55,13.70,46.74,1018.57,2010.00,2690.09,2505.95,2842.36,600.14,588.05,26.96,0000 0000 0000 0000 000000
2018-05-08 10:50:22,0.05,2.14,0.00,27.59,30.77,33.55,13.72,46.79,1018.57,2010.00,2689.50,2505.18,2841.92,600.17,588.26,27.01,0000 0000 0000 0000 000000
2018-05-08 10:55:24,0.02,2.15,0.00,27.56,30.75,33.56,13.73,46.92,1018.56,2010.00,2688.94,2504.98,2841.11,600.00,588.12,27.06,0000 0000 0000 0000 000000
2018-05-08 11:00:25,0.05,2.15,0.00,27.57,30.75,33.56,13.76,46.92,1018.49,2010.00,2688.12,2504.49,2840.87,600.16,588.22,27.11,0000 0000 0000 0000 000000
2018-05-08 11:05:26,0.03,2.15,0.00,27.51,30.75,33.55,13.74,46.89,1018.47,2010.00,2687.68,2504.01,2840.10,600.04,588.28,27.16,0000 0000 0000 0000 000000
2018-05-08 11:10:27,0.01,2.15,0.00,27.45,30.74,33.51,13.79,46.86,1018.53,2010.00,2687.03,2503.92,2839.90,600.47,588.71,27.21,0000 0000 0000 0000 000000
2018-05-08 11:15:29,0.06,2.15,0.00,27.39,30.72,33.51,13.75,47.01,1018.56,2010.00,2686.49,2503.17,2839.13,600.23,588.67,27.26,0000 0000 0000 0000 000000
2018-05-08 11:20:30,0.01,2.16,0.00,27.34,30.71,33.47,13.77,46.96,1018.56,2010.00,2685.95,2503.00,2838.90,599.92,588.41,27.31,0000 0000 0000 0000 000000
2018-05-08 11:25:31,0.04,2.16,0.00,27.34,30.69,33.46,13.74,46.91,1018.54,2010.00,2685.11,2502.87,2838.11,599.97,588.64,27.36,0000 0000 0000 0000 000000
2018-05-08 11:30:32,0.03,2.16,0.00,27.29,30.67,33.45,13.82,46.95,1018.46,2010.00,2684.78,2502.21,2837.97,600.03,588.74,27.41,0000 0000 0000 0000 000000
2018-05-08 11:35:34,0.03,2.16,0.00,27.21,30.65,33.42,13.74,46.81,1018.17,2010.02,2684.05,2502.01,2837.37,600.47,589.04,27.46,0000 0000 0000 0000 000000
2018-05-08 11:40:35,0.02,2.16,0.00,27.17,30.63,33.44,13.71,46.94,1018.10,2010.05,2683.81,2501.99,2837.01,599.90,588.50,27.51,0000 0000 0000 0000 000000
2018-05-08 11:45:36,0.04,2.16,0.00,27.12,30.60,33.52,13.71,47.02,1018.09,2010.19,2683.07,2501.83,2836.87,599.93,588.68,27.56,0000 0000 0000 0000 000000
2018-05-08 11:50:38,0.06,2.17,0.00,27.12,30.58,33.57,13.74,46.93,1018.08,2010.39,2682.86,2501.21,2836.16,600.08,588.78,27.61,0000 0000 0000 0000 000000
2018-05-08 11:55:39,0.06,2.17,0.00,27.06,30.55,33.54,13.75,47.04,1018.08,2010.82,2682.19,2501.03,2836.01,600.07,588.89,27.66,0000 0000 0000 0000 000000
2018-05-08 12:00:40,0.01,2.17,0.00,26.99,30.52,33.50,13.87,47.00,1018.08,2010.94,2681.97,2501.00,2835.93,600.26,589.24,27.71,0000 0000 0000 0000 000000
2018-05-08 12:05:41,0.04,2.17,0.00,26.93,30.49,33.49,13.80,47.06,1018.08,2010.99,2681.28,2500.98,2835.30,600.11,589.15,27.76,0000 0000 0000 0000 000000
2018-05-08 12:10:43,0.00,2.17,0.00,26.92,30.46,33.44,13.77,46.88,1018.08,2010.99,2681.00,2500.95,2835.01,600.09,589.20,27.81,0000 0000 0000 0000 000000
2018-05-08 12:15:44,0.03,2.17,0.00,26.88,30.43,33.38,13.78,46.98,1018.05,2010.99,2680.60,2500.60,2834.98,600.03,589.19,27.86,0000 0000 0000 0000 000000
2018-05-08 12:20:45,0.03,2.18,0.00,26.81,30.40,33.35,13.75,47.00,1017.85,2011.01,2680.02,2500.17,2834.68,600.30,589.49,27.91,0000 0000 0000 0000 000000
2018-05-08 12:25:46,0.02,2.18,0.00,26.75,30.36,33.30,13.77,46.95,1017.65,2011.09,2679.96,2500.03,2834.09,600.34,589.46,27.96,0000 0000 0000 0000 000000
2018-05-08 12:30:48,0.07,2.18,0.00,26.75,30.33,33.25,13.70,46.89,1017.60,2011.43,2679.29,2500.01,2834.00,599.84,589.10,28.01,0000 0000 0000 0000 000000
2018-05-08 12:35:49,0.03,2.18,0.00,26.69,30.30,33.20,13.76,47.05,1017.60,2011.82,2679.00,2500.00,2833.99,599.96,589.23,28.06,0000 0000 0000 0000 000000
2018-05-08 12:40:50,0.02,2.18,0.00,26.64,30.26,33.17,13.77,46.96,1017.59,2011.96,2678.67,2499.99,2833.63,600.13,589.27,28.11,0000 0000 0000 0000 000000
2018-05-08 12:45:51,0.01,2.19,0.00,26.60,30.22,33.14,13.73,47.02,1017.59,2011.99,2678.05,2499.98,2833.11,600.05,589.32,28.16,0000 0000 0000 0000 000000
2018-05-08 12:50:53,0.00,2.19,0.00,26.58,30.19,33.08,13.80,47.02,1017.59,2011.99,2677.98,2499.92,2833.00,600.18,589.61,28.21,0000 0000 0000 0000 000000
2018-05-08 12:55:54,0.02,2.19,0.00,26.51,30.15,33.04,13.78,46.90,1017.59,2012.00,2677.37,2499.68,2832.99,600.10,589.70,28.26,0000 0000 0000 0000 000000